Flag for Poland Weather past 2 weeks in Gliwice, Poland

Now
63 °F

Partly sunny.


Feels Like: 63 °F
Forecast: 49 / 60 °F
Wind: 12 mph from West

Location: Katowice Airport

Current Time: Oct 20, 2014 at 2:35:20 PM

Latest Report: Oct 20, 2014 at 2:00 PM


Visibility: N/A

Pressure: 29.92 "Hg

Humidity: 77%

Dew point: 55 °F

Location of GliwiceLocation

Historic Weather in Gliwice — Graph

°F

Gliwice temperature yesterday

Maximum temperature yesterday: 66 °F (at 3:00 PM)
Minimum temperature yesterday: 43 °F (at 3:00 AM)
Average temperature yesterday: 55 °F

Past Weeks' High & Low Weather Summary

 TemperatureHumidityPressure
High75 °F (Oct 11, 3:00 PM)100% (Oct 5, 11:00 PM)30.33 "Hg (Oct 5, 11:00 PM)
Low34 °F (Oct 6, 5:30 AM)45% (Oct 5, 3:00 PM)29.71 "Hg (Oct 14, 4:30 AM)
Average56 °F85%29.98 "Hg
* Reported Oct 5 1:00 PM — Oct 20 1:30 PM, Gliwice, Weather by CustomWeather, © 2014

Note: Actual official high and low records may vary slightly from our data, if they occured in-between our weather recording intervals... More about our weather records

Advertising

Gliwice weather history for previous 24 hours

 ConditionsComfort  
Time TempWeatherWind HumidityBarometerVisibility
1:30 PM
Oct 20
63 °FScattered clouds.15 mph77%29.92 "HgN/A
1:00 PM63 °FScattered clouds.16 mph77%29.95 "HgN/A
12:30 PM61 °FScattered clouds.12 mph83%29.95 "HgN/A
12:00 PM59 °FScattered clouds.13 mph88%29.98 "HgN/A
11:30 AM59 °FPassing clouds.14 mph88%29.98 "HgN/A
11:00 AM57 °FPassing clouds.9 mph88%29.98 "HgN/A
10:30 AM57 °FPassing clouds.10 mph88%29.98 "HgN/A
10:00 AM57 °FScattered clouds.9 mph94%29.95 "HgN/A
9:30 AM57 °FSprinkles. Broken clouds.9 mph94%29.95 "Hg4 mi
9:00 AM55 °FSprinkles. Broken clouds.9 mph100%29.95 "Hg5 mi
8:30 AM55 °FSprinkles. Scattered clouds.9 mph100%29.98 "Hg4 mi
8:00 AM55 °FSprinkles. Partly cloudy.10 mph94%29.98 "Hg4 mi
7:30 AM57 °FSprinkles. Partly cloudy.9 mph88%29.92 "HgN/A
7:00 AM57 °FPassing clouds.12 mph88%29.92 "HgN/A
5:00 AM57 °FPassing clouds.12 mph82%29.95 "HgN/A
4:30 AM57 °FPassing clouds.13 mph82%29.95 "HgN/A
4:00 AM57 °FClear.14 mph82%29.95 "Hg10 mi
3:30 AM57 °FClear.14 mph82%29.98 "Hg10 mi
3:00 AM57 °FClear.13 mph82%29.98 "Hg10 mi
2:30 AM55 °FPassing clouds.9 mph88%29.98 "HgN/A
2:00 AM55 °FClear.7 mph88%29.98 "Hg10 mi
1:30 AM55 °FClear.10 mph88%30.01 "Hg10 mi
1:00 AM55 °FClear.9 mph88%30.01 "Hg10 mi
12:30 AM57 °FClear.10 mph82%30.01 "Hg10 mi
12:00 AM57 °FClear.13 mph82%30.01 "Hg10 mi
11:30 PM
Oct 19
57 °FClear.15 mph82%30.01 "Hg10 mi
11:00 PM59 °FClear.15 mph77%30.04 "Hg10 mi
10:30 PM59 °FClear.15 mph77%30.04 "Hg10 mi
10:00 PM59 °FClear.15 mph77%30.04 "Hg10 mi
9:30 PM59 °FClear.15 mph77%30.04 "Hg10 mi
9:00 PM59 °FClear.15 mph77%30.04 "Hg10 mi
8:30 PM59 °FClear.13 mph82%30.04 "Hg10 mi
8:00 PM59 °FClear.14 mph82%30.07 "Hg10 mi
7:30 PM59 °FClear.14 mph82%30.07 "Hg10 mi
7:00 PM61 °FClear.13 mph77%30.07 "Hg10 mi
6:30 PM61 °FSunny.15 mph72%30.07 "Hg10 mi
6:00 PM61 °FSunny.14 mph72%30.07 "Hg10 mi
5:30 PM63 °FSunny.14 mph68%30.07 "Hg10 mi
5:00 PM64 °FSunny.13 mph68%30.07 "Hg10 mi
4:30 PM64 °FSunny.17 mph64%30.09 "Hg10 mi
4:00 PM66 °FSunny.18 mph60%30.09 "Hg10 mi
3:30 PM66 °FSunny.14 mph60%30.09 "Hg10 mi
3:00 PM66 °FSunny.13 mph64%30.12 "Hg10 mi
2:30 PM64 °FSunny.14 mph64%30.12 "Hg10 mi
2:00 PM64 °FPassing clouds.14 mph64%30.12 "HgN/A
Weather by CustomWeather, © 2014

See weather overviewHow to use our weather pages